TimeEST,TemperatureF,Dew PointF,Humidity,Sea Level PressureIn,VisibilityMPH,Wind Direction,Wind SpeedMPH,Gust SpeedMPH,PrecipitationIn,Events,Conditions,WindDirDegrees,DateUTC
12:56 AM,43.0,41.0,93,30.19,0.2,SSE,5.8,-,0.01,Fog-Rain,Light Rain,150,2014-01-11 05:56:00
1:04 AM,42.8,42.8,100,30.18,0.5,SSE,5.8,-,0.00,Fog,Fog,150,2014-01-11 06:04:00
1:40 AM,44.6,42.8,93,30.17,1.5,SSE,5.8,-,0.00,,Overcast,160,2014-01-11 06:40:00
1:54 AM,44.6,42.8,93,30.17,0.5,SSE,4.6,-,0.00,Fog,Fog,160,2014-01-11 06:54:00
1:56 AM,45.0,44.1,97,30.17,0.5,SSE,5.8,-,0.00,Fog-Rain,Light Rain,160,2014-01-11 06:56:00
2:09 AM,46.4,44.6,93,30.15,2.0,SSE,6.9,-,0.02,Rain,Light Rain,160,2014-01-11 07:09:00
2:11 AM,46.4,44.6,93,30.16,3.0,South,6.9,-,0.02,Rain,Light Rain,170,2014-01-11 07:11:00
2:19 AM,46.4,44.6,93,30.15,7.0,SSE,8.1,-,0.02,,Overcast,150,2014-01-11 07:19:00
2:56 AM,48.0,46.0,93,30.13,9.0,SSE,11.5,-,0.03,Rain,Light Rain,160,2014-01-11 07:56:00
3:56 AM,51.1,48.0,89,30.09,10.0,SSE,12.7,-,0.01,,Overcast,150,2014-01-11 08:56:00
4:56 AM,50.0,46.9,89,30.05,10.0,SSE,11.5,21.9,0.01,,Overcast,150,2014-01-11 09:56:00
5:56 AM,52.0,48.9,89,30.00,10.0,SSE,16.1,25.3,0.01,,Light Drizzle,150,2014-01-11 10:56:00
6:10 AM,51.8,48.2,88,29.99,10.0,SSE,15.0,-,0.00,,Overcast,150,2014-01-11 11:10:00
6:56 AM,52.0,48.9,89,29.96,10.0,SSE,17.3,25.3,0.01,,Overcast,160,2014-01-11 11:56:00
7:10 AM,51.8,48.2,88,29.95,10.0,SSE,15.0,23.0,N/A,,Overcast,160,2014-01-11 12:10:00
7:39 AM,53.6,50.0,88,29.94,10.0,SSE,12.7,20.7,N/A,,Overcast,160,2014-01-11 12:39:00
7:56 AM,52.0,50.0,93,29.94,8.0,SSE,12.7,-,0.01,,Overcast,160,2014-01-11 12:56:00
8:20 AM,51.8,50.0,94,29.92,2.0,South,12.7,-,N/A,,Overcast,170,2014-01-11 13:20:00
8:56 AM,53.1,51.1,93,29.91,2.0,South,15.0,21.9,0.01,,Overcast,170,2014-01-11 13:56:00
9:56 AM,53.1,51.1,93,29.88,1.0,South,13.8,20.7,0.01,,Overcast,190,2014-01-11 14:56:00
10:14 AM,53.6,51.8,94,29.86,0.5,South,15.0,23.0,N/A,Fog,Fog,180,2014-01-11 15:14:00
10:52 AM,53.6,51.8,94,29.83,0.2,South,16.1,23.0,0.01,Fog-Rain,Light Rain,190,2014-01-11 15:52:00
10:56 AM,53.1,51.1,93,29.83,0.2,South,12.7,24.2,0.01,Fog-Rain,Light Rain,180,2014-01-11 15:56:00
11:56 AM,53.1,52.0,96,29.74,0.1,South,17.3,25.3,0.03,Fog,Fog,170,2014-01-11 16:56:00
12:42 PM,53.6,51.8,94,29.66,0.1,South,20.7,28.8,0.01,Fog,Fog,180,2014-01-11 17:42:00
12:56 PM,54.0,53.1,97,29.65,0.2,South,21.9,32.2,0.01,Fog,Fog,170,2014-01-11 17:56:00
1:56 PM,54.0,53.1,97,29.57,0.1,South,16.1,27.6,0.02,Fog,Fog,170,2014-01-11 18:56:00
2:56 PM,55.0,53.1,93,29.54,0.1,South,23.0,32.2,0.22,Fog,Fog,190,2014-01-11 19:56:00
3:47 PM,53.6,51.8,94,29.52,0.1,SSW,21.9,34.5,0.02,Fog-Rain,Light Rain,200,2014-01-11 20:47:00
3:56 PM,53.1,52.0,96,29.51,0.1,SSW,18.4,34.5,0.02,Fog-Rain,Light Rain,200,2014-01-11 20:56:00
4:18 PM,53.6,51.8,94,29.50,0.1,South,16.1,29.9,0.02,Fog-Rain,Light Rain,190,2014-01-11 21:18:00
4:45 PM,51.8,51.8,100,29.47,0.1,SSW,19.6,31.1,0.03,Fog,Fog,200,2014-01-11 21:45:00
4:56 PM,52.0,51.1,97,29.47,0.1,SSW,17.3,26.5,0.03,Fog-Rain,Light Rain,200,2014-01-11 21:56:00
5:25 PM,53.6,51.8,94,29.44,0.1,SSW,17.3,26.5,0.02,Fog,Fog,200,2014-01-11 22:25:00
5:34 PM,51.8,51.8,100,29.43,0.1,South,18.4,27.6,0.04,Fog-Rain,Rain,190,2014-01-11 22:34:00
5:56 PM,53.1,52.0,96,29.46,0.8,West,23.0,32.2,0.10,Rain,Rain,260,2014-01-11 22:56:00
6:07 PM,53.6,51.8,94,29.46,2.0,WSW,24.2,31.1,0.13,Rain,Heavy Rain,250,2014-01-11 23:07:00
6:13 PM,53.6,51.8,94,29.47,5.0,SW,20.7,34.5,0.17,Rain,Rain,230,2014-01-11 23:13:00
6:56 PM,52.0,51.1,97,29.45,8.0,SSW,8.1,-,0.20,Rain,Rain,210,2014-01-11 23:56:00
7:56 PM,50.0,48.9,96,29.43,0.8,South,3.5,-,0.01,Rain,Light Rain,190,2014-01-12 00:56:00
8:56 PM,48.0,46.9,96,29.38,0.1,SSE,8.1,-,0.01,Fog,Fog,160,2014-01-12 01:56:00
9:35 PM,50.0,48.2,94,29.36,0.8,SSE,11.5,-,N/A,,Overcast,160,2014-01-12 02:35:00
9:56 PM,50.0,48.0,93,29.38,5.0,South,10.4,-,N/A,,Mostly Cloudy,180,2014-01-12 02:56:00
10:15 PM,48.2,46.4,93,29.42,1.0,SW,12.7,-,N/A,,Overcast,220,2014-01-12 03:15:00
10:56 PM,50.0,48.9,96,29.41,1.0,SSW,17.3,27.6,0.01,,Overcast,210,2014-01-12 03:56:00
11:56 PM,48.9,46.9,93,29.40,3.0,SW,16.1,24.2,0.09,Rain,Light Rain,220,2014-01-12 04:56:00